logo tempoitalia

Diretta Meteo Blythe, Stati Uniti (USA)domenica 30 agosto ore 23:38

Mappa
Sereno 36 °C Sereno 24 Ore: T.min 32 T.max 41
Ponente Sud Km/h 18.5 Punto di rugiada: 10 °C Umidità: 20% Visibilità: 10 Km
Il sole sorge alle: 06:11 Il sole tramonta alle: 19:07
30 Agosto 2026 23:38 tempo osservato: Sereno Sereno 36 20 1007 vento: Nord S 18.5
30 Agosto 2026 22:52 tempo osservato: Sereno Sereno 37 20 1006 vento: Nord O/SO 24
30 Agosto 2026 21:52 tempo osservato: Sereno Sereno 37 22 1006 vento: Nord S 18.5
30 Agosto 2026 20:52 tempo osservato: Sereno Sereno 38 19 1006 vento: Nord S/SO 11.1
30 Agosto 2026 19:52 tempo osservato: Sereno Sereno 39 18 1005 vento: Nord O/SO 14.8
30 Agosto 2026 18:52 tempo osservato: Sereno Sereno 41 19 1005 vento: Nord O/SO 20.3
30 Agosto 2026 17:52 tempo osservato: Sereno Sereno 41 26 1004 vento: Nord S 14.8
30 Agosto 2026 16:52 tempo osservato: Sereno Sereno 41 28 1005 vento: Nord S 27.8
30 Agosto 2026 15:52 tempo osservato: Poco Nuvoloso Poco Nuvoloso 40 31 1005 vento: Nord S 29.6
30 Agosto 2026 14:52 tempo osservato: Sereno Sereno 41 31 1006 vento: Nord S 22.2
30 Agosto 2026 13:52 tempo osservato: Sereno Sereno 40 31 1007 vento: Nord S 20.3
30 Agosto 2026 12:52 tempo osservato: Sereno Sereno 39 35 1008 vento: Nord S/SE 22.2
30 Agosto 2026 11:52 tempo osservato: Sereno Sereno 38 39 1009 vento: Nord S 18.5
30 Agosto 2026 10:52 tempo osservato: Sereno Sereno 38 21 1010 vento: Nord S 29.6
30 Agosto 2026 09:52 tempo osservato: Sereno Sereno 38 27 1010 vento: Nord S 27.8
30 Agosto 2026 08:52 tempo osservato: Sereno Sereno 36 26 1010 vento: Nord S 29.6
30 Agosto 2026 07:52 tempo osservato: Sereno Sereno 34 24 1009 vento: Nord S 22.2
30 Agosto 2026 06:52 tempo osservato: Sereno Sereno 33 27 1009 vento: Nord S 14.8
30 Agosto 2026 05:52 tempo osservato: Sereno Sereno 33 27 1008 vento: Nord S/SO 18.5
30 Agosto 2026 04:52 tempo osservato: Sereno Sereno 32 31 1007 vento: Nord S 25.9
30 Agosto 2026 03:52 tempo osservato: Sereno Sereno 33 27 1007 vento: Nord S 20.3
30 Agosto 2026 02:52 tempo osservato: Sereno Sereno 34 26 1007 vento: Nord S/SO 24
30 Agosto 2026 01:52 tempo osservato: Sereno Sereno 34 26 1006 vento: Nord S/SO 18.5
30 Agosto 2026 00:52 tempo osservato: Sereno Sereno 34 30 1006 vento: Nord S/SE 13
29 Agosto 2026 23:52 tempo osservato: Sereno Sereno 36 25 1006 vento: Nord E/SE 7.4